{"data":{"norad_id":66225,"intl_designator":"2025-244V","name":"STARLINK-35734","alt_names":[],"object_type":"PAYLOAD","status":"ACTIVE","operator":null,"country":"US","launch_date":"2025-10-28","launch_site_code":"AFWTR","launch_vehicle":null,"mission":null,"orbit_class":"UNKNOWN","rcs_meters":null,"size_class":null,"mass_kg":null,"dimensions":null,"purposes":["comms"],"wikipedia_slug":null,"has_3d_model":false,"image_url":null,"decayed_at":null,"tle_current":{"epoch":"2026-05-24T22:50:05.828640Z","epoch_age_seconds":82507,"freshness":"FRESH","line1":"1 66225U 25244V   26144.95145635  .00017431  00000+0  59890-3 0  9992","line2":"2 66225  53.1560 235.8153 0001479 104.8400 255.2765 15.30220760 33338","mean_motion":15.3022076,"eccentricity":0.0001479,"inclination_deg":53.156,"raan_deg":235.8153,"arg_perigee_deg":104.84,"mean_anomaly_deg":255.2765,"bstar":0.0005989,"rev_number":3333,"period_min":94.104069010278,"perigee_km":474.13948289862,"apogee_km":476.16668610562,"semimajor_km":6853.2900845021,"source":"CELESTRAK","updated_at":"2026-05-25T13:38:21.130793Z"}}}